This is the latest recevied weather packets stored in our database for station/object K3SV. If no packets are shown the sender has not sent any weather packets the latest 10 day(s).
| Time | Temp. | Humidity | Pressure | Rain* | Wind** | Luminosity | Snow |
|---|---|---|---|---|---|---|---|
| 1778059174 | 18.33° C | 90% | 1015.7 hPa | 0 mm | - | 0 W/m² | - |
| 1778058873 | 18.33° C | 91% | 1015.7 hPa | 0 mm | - | 0 W/m² | - |
| 1778058569 | 18.33° C | 91% | 1015.6 hPa | 0 mm | - | 0 W/m² | - |
| 1778058267 | 18.33° C | 90% | 1015.6 hPa | 0 mm | - | 0 W/m² | - |
| 1778057963 | 17.78° C | 90% | 1015.5 hPa | 0 mm | - | 0 W/m² | - |
| 1778057660 | 17.78° C | 89% | 1015.4 hPa | 0 mm | - | 0 W/m² | - |
| 1778057356 | 18.33° C | 89% | 1015.5 hPa | 0 mm | - | 0 W/m² | - |
| 1778057054 | 18.33° C | 89% | 1015.4 hPa | 0 mm | - | 0 W/m² | - |
| 1778056749 | 18.89° C | 88% | 1015.7 hPa | 0 mm | - | 0 W/m² | - |
| 1778056447 | 18.89° C | 88% | 1015.6 hPa | 0 mm | - | 0 W/m² | - |
| 1778056144 | 18.89° C | 88% | 1015.7 hPa | 0 mm | - | 0 W/m² | - |
| 1778055841 | 18.89° C | 88% | 1015.3 hPa | 0 mm | - | 0 W/m² | - |
| 1778055537 | 18.89° C | 88% | 1015.4 hPa | 0 mm | - | 0 W/m² | - |
| 1778055235 | 18.89° C | 88% | 1015.3 hPa | 0 mm | - | 0 W/m² | - |
| 1778054933 | 18.89° C | 88% | 1015.5 hPa | 0 mm | - | 0 W/m² | - |
| 1778054629 | 18.33° C | 88% | 1015.3 hPa | 0 mm | - | 0 W/m² | - |
| 1778054327 | 18.33° C | 88% | 1015.4 hPa | 0 mm | - | 0 W/m² | - |
| 1778054024 | 18.33° C | 88% | 1015.4 hPa | 0 mm | - | 0 W/m² | - |
| 1778053721 | 18.33° C | 87% | 1015.5 hPa | 0 mm | - | 0 W/m² | - |
| 1778053418 | 18.33° C | 87% | 1015.5 hPa | 0 mm | - | 0 W/m² | - |
| 1778053116 | 18.89° C | 86% | 1015.5 hPa | 0 mm | - | 0 W/m² | - |
| 1778052813 | 18.89° C | 85% | 1015.7 hPa | 0 mm | - | 0 W/m² | - |
| 1778052505 | 19.44° C | 85% | 1015.8 hPa | 0 mm | - | 0 W/m² | - |
| 1778052202 | 18.89° C | 86% | 1015.8 hPa | 0 mm | - | 0 W/m² | - |
| 1778051899 | 18.89° C | 86% | 1015.7 hPa | 0 mm | - | 0 W/m² | - |
* Rain latest hour (hover to see other rain measurements)
** Current wind speed in m/s (hover to see current wind gust speed)